• In Hungary
  • List of Countries
  • For 7 days
  • Water Temperature
  • Satellite Maps
  • Weather Map
  • News
  • Weather Widgets
  • user-avatar
    Login

    Hourly Weather Keren

    Today, 18 December, Monday

    Time Temperature Precipitation Wind Pressure Humidity
    00:00 +18°C° 0 mm 3 mps 645 mmHg 70%
    01:00 +18°C° 0 mm 2 mps 645 mmHg 71%
    02:00 +17°C° 0 mm 2 mps 645 mmHg 72%
    03:00 +17°C° 0 mm 2 mps 644 mmHg 74%
    04:00 +17°C° 0 mm 2 mps 645 mmHg 74%
    05:00 +17°C° 0 mm 2 mps 645 mmHg 75%
    06:00 +16°C° 0 mm 2 mps 645 mmHg 76%
    07:00 +17°C° 0 mm 2 mps 645 mmHg 71%
    08:00 +18°C° 0 mm 3 mps 646 mmHg 66%
    09:00 +20°C° 0 mm 2 mps 646 mmHg 59%
    10:00 +21°C° 0 mm 2 mps 646 mmHg 53%
    11:00 +24°C° 0 mm 2 mps 647 mmHg 46%
    12:00 +25°C° 0 mm 2 mps 647 mmHg 40%
    13:00 +26°C° 0 mm 2 mps 646 mmHg 38%
    14:00 +26°C° 0 mm 3 mps 646 mmHg 37%
    15:00 +27°C° 0 mm 3 mps 646 mmHg 35%
    16:00 +26°C° 0 mm 3 mps 645 mmHg 40%
    17:00 +25°C° 0 mm 3 mps 645 mmHg 44%
    18:00 +24°C° 0 mm 3 mps 645 mmHg 49%
    19:00 +22°C° 0 mm 3 mps 645 mmHg 54%
    20:00 +21°C° 0 mm 3 mps 645 mmHg 60%
    21:00 +20°C° 0 mm 3 mps 645 mmHg 65%
    22:00 +20°C° 0 mm 3 mps 645 mmHg 66%
    23:00 +19°C° 0 mm 3 mps 645 mmHg 67%

    Tomorrow, 19 December, Tuesday

    Time Temperature Precipitation Wind Pressure Humidity
    00:00 +19°C° 0 mm 3 mps 645 mmHg 68%
    01:00 +18°C° 0 mm 3 mps 645 mmHg 68%
    02:00 +18°C° 0 mm 3 mps 644 mmHg 68%
    03:00 +17°C° 0 mm 3 mps 644 mmHg 68%
    04:00 +17°C° 0 mm 3 mps 644 mmHg 68%
    05:00 +17°C° 0 mm 3 mps 644 mmHg 68%
    06:00 +17°C° 0 mm 3 mps 644 mmHg 68%
    07:00 +18°C° 0 mm 3 mps 645 mmHg 64%
    08:00 +18°C° 0 mm 3 mps 645 mmHg 61%
    09:00 +19°C° 0 mm 4 mps 646 mmHg 57%
    10:00 +21°C° 0 mm 4 mps 646 mmHg 50%
    11:00 +23°C° 0 mm 4 mps 646 mmHg 43%
    12:00 +25°C° 0 mm 4 mps 647 mmHg 36%
    13:00 +26°C° 0 mm 4 mps 646 mmHg 34%
    14:00 +26°C° 0 mm 4 mps 646 mmHg 32%
    15:00 +27°C° 0 mm 4 mps 645 mmHg 30%
    16:00 +26°C° 0 mm 4 mps 645 mmHg 34%
    17:00 +23°C° 0 mm 4 mps 645 mmHg 37%
    18:00 +22°C° 0 mm 4 mps 645 mmHg 41%
    19:00 +21°C° 0 mm 4 mps 645 mmHg 44%
    20:00 +20°C° 0 mm 4 mps 645 mmHg 48%
    21:00 +19°C° 0 mm 4 mps 645 mmHg 51%
    22:00 +19°C° 0 mm 4 mps 645 mmHg 52%
    23:00 +18°C° 0 mm 3 mps 645 mmHg 52%

    Day after tomorrow, 20 December, Wednesday

    Time Temperature Precipitation Wind Pressure Humidity
    00:00 +18°C° 0 mm 3 mps 645 mmHg 53%
    01:00 +17°C° 0 mm 3 mps 644 mmHg 53%
    02:00 +17°C° 0 mm 3 mps 644 mmHg 54%
    03:00 +17°C° 0 mm 3 mps 644 mmHg 54%
    04:00 +16°C° 0 mm 3 mps 644 mmHg 58%
    05:00 +16°C° 0 mm 3 mps 644 mmHg 62%
    06:00 +16°C° 0 mm 3 mps 644 mmHg 66%
    07:00 +17°C° 0 mm 3 mps 645 mmHg 64%
    08:00 +18°C° 0 mm 3 mps 645 mmHg 61%
    09:00 +19°C° 0 mm 4 mps 646 mmHg 59%
    10:00 +21°C° 0 mm 4 mps 646 mmHg 51%
    11:00 +23°C° 0 mm 4 mps 646 mmHg 42%
    12:00 +25°C° 0 mm 4 mps 647 mmHg 34%
    13:00 +26°C° 0 mm 4 mps 646 mmHg 32%
    14:00 +26°C° 0 mm 4 mps 646 mmHg 30%
    15:00 +27°C° 0 mm 4 mps 645 mmHg 28%
    16:00 +26°C° 0 mm 4 mps 645 mmHg 32%
    17:00 +25°C° 0 mm 4 mps 645 mmHg 35%
    18:00 +23°C° 0 mm 4 mps 645 mmHg 38%
    19:00 +22°C° 0 mm 4 mps 645 mmHg 43%
    20:00 +21°C° 0 mm 4 mps 645 mmHg 48%
    21:00 +20°C° 0 mm 4 mps 645 mmHg 53%
    22:00 +19°C° 0 mm 3 mps 645 mmHg 57%
    23:00 +19°C° 0 mm 3 mps 645 mmHg 61%

    21 December, Thursday

    Time Temperature Precipitation Wind Pressure Humidity
    00:00 +18°C° 0 mm 3 mps 645 mmHg 65%
    01:00 +18°C° 0 mm 3 mps 645 mmHg 65%
    02:00 +17°C° 0 mm 3 mps 644 mmHg 65%
    03:00 +17°C° 0 mm 3 mps 644 mmHg 65%
    04:00 +16°C° 0 mm 3 mps 644 mmHg 64%
    05:00 +16°C° 0 mm 3 mps 644 mmHg 64%
    06:00 +16°C° 0 mm 3 mps 644 mmHg 63%
    07:00 +17°C° 0 mm 3 mps 645 mmHg 57%
    08:00 +18°C° 0 mm 3 mps 646 mmHg 51%
    09:00 +19°C° 0 mm 3 mps 647 mmHg 45%
    10:00 +21°C° 0 mm 3 mps 647 mmHg 36%
    11:00 +24°C° 0 mm 3 mps 647 mmHg 28%
    12:00 +26°C° 0 mm 3 mps 647 mmHg 19%
    13:00 +27°C° 0 mm 3 mps 647 mmHg 18%
    14:00 +27°C° 0 mm 3 mps 646 mmHg 17%
    15:00 +28°C° 0 mm 3 mps 646 mmHg 15%
    16:00 +27°C° 0 mm 3 mps 645 mmHg 18%
    17:00 +25°C° 0 mm 3 mps 645 mmHg 21%
    18:00 +23°C° 0 mm 4 mps 645 mmHg 24%
    19:00 +22°C° 0 mm 4 mps 645 mmHg 27%
    20:00 +21°C° 0 mm 3 mps 645 mmHg 30%
    21:00 +20°C° 0 mm 3 mps 646 mmHg 34%
    22:00 +19°C° 0 mm 3 mps 645 mmHg 36%
    23:00 +18°C° 0 mm 3 mps 645 mmHg 38%

    22 December, Friday

    Time Temperature Precipitation Wind Pressure Humidity
    00:00 +18°C° 0 mm 3 mps 645 mmHg 41%
    01:00 +17°C° 0 mm 3 mps 644 mmHg 42%
    02:00 +17°C° 0 mm 3 mps 644 mmHg 43%
    03:00 +17°C° 0 mm 3 mps 644 mmHg 44%
    04:00 +16°C° 0 mm 3 mps 644 mmHg 44%
    05:00 +16°C° 0 mm 3 mps 644 mmHg 44%
    06:00 +16°C° 0 mm 3 mps 644 mmHg 44%
    07:00 +17°C° 0 mm 3 mps 645 mmHg 40%
    08:00 +18°C° 0 mm 3 mps 645 mmHg 37%
    09:00 +20°C° 0 mm 3 mps 646 mmHg 34%
    10:00 +22°C° 0 mm 3 mps 646 mmHg 29%
    11:00 +24°C° 0 mm 3 mps 646 mmHg 23%
    12:00 +26°C° 0 mm 3 mps 646 mmHg 18%
    13:00 +27°C° 0 mm 3 mps 646 mmHg 17%
    14:00 +27°C° 0 mm 3 mps 645 mmHg 16%
    15:00 +28°C° 0 mm 3 mps 645 mmHg 15%
    16:00 +27°C° 0 mm 3 mps 645 mmHg 18%
    17:00 +26°C° 0 mm 3 mps 644 mmHg 20%
    18:00 +25°C° 0 mm 3 mps 644 mmHg 22%
    19:00 +22°C° 0 mm 3 mps 644 mmHg 25%
    20:00 +21°C° 0 mm 3 mps 644 mmHg 27%
    21:00 +20°C° 0 mm 3 mps 644 mmHg 30%
    22:00 +19°C° 0 mm 3 mps 644 mmHg 32%
    23:00 +19°C° 0 mm 3 mps 644 mmHg 33%

    23 December, Saturday

    Time Temperature Precipitation Wind Pressure Humidity
    00:00 +18°C° 0 mm 2 mps 643 mmHg 35%
    01:00 +18°C° 0 mm 2 mps 643 mmHg 37%
    02:00 +17°C° 0 mm 2 mps 643 mmHg 39%
    03:00 +17°C° 0 mm 2 mps 642 mmHg 41%
    04:00 +17°C° 0 mm 2 mps 642 mmHg 41%
    05:00 +16°C° 0 mm 2 mps 643 mmHg 42%
    06:00 +16°C° 0 mm 2 mps 643 mmHg 42%
    07:00 +18°C° 0 mm 2 mps 643 mmHg 38%
    08:00 +19°C° 0 mm 2 mps 644 mmHg 34%
    09:00 +21°C° 0 mm 2 mps 645 mmHg 30%
    10:00 +23°C° 0 mm 2 mps 645 mmHg 26%
    11:00 +25°C° 0 mm 2 mps 645 mmHg 22%
    12:00 +27°C° 0 mm 2 mps 645 mmHg 17%
    13:00 +27°C° 0 mm 2 mps 645 mmHg 17%
    14:00 +28°C° 0 mm 2 mps 644 mmHg 16%
    15:00 +28°C° 0 mm 2 mps 644 mmHg 15%
    16:00 +27°C° 0 mm 2 mps 644 mmHg 17%
    17:00 +27°C° 0 mm 2 mps 644 mmHg 20%
    18:00 +26°C° 0 mm 2 mps 644 mmHg 22%
    19:00 +24°C° 0 mm 2 mps 644 mmHg 26%
    20:00 +23°C° 0 mm 2 mps 644 mmHg 29%
    21:00 +21°C° 0 mm 2 mps 644 mmHg 32%
    22:00 +21°C° 0 mm 2 mps 644 mmHg 34%
    23:00 +20°C° 0 mm 2 mps 643 mmHg 35%
    Show more